Powrót do katalogu

STARLINK-35010

AktywnyŁącznośćSSO
NORAD 65281·PAYLOAD·🇺🇸 United States

Wystrzelony Aug 22, 2025 z Vandenberg Space Force Base

Loading…

Następne Przeloty (najbliższe 24 godziny)

TLE

ŚwieżeSource: CelesTrak SupGP

Epoka: Sep 15, 2026, 02:47 UTC

1 65281C 25184J   26258.11645833  .00032654  00000+0  10135-2 0  2585
2 65281  97.2840 306.2039 0000957  89.7801 217.1028 15.33429102    13

Śledź STARLINK-35010 w czasie rzeczywistym z AllMySat

Download on the App Store